This demonstration page uses our WeatherBlox Daily Observations layout. Learn more.

Left ArrowRight Arrow

Hourly Observations for August 7, 2022

Temp ( °F °C ) Dew Point ( °F °C ) Humidity (%) Winds ( mph kmh ) Pressure ( in mb ) Visibility ( mi km ) Precip ( " mm )
12:53 am 00:53 Clear 71 21.7 70 21.1 96 96 Calm 30.20 1023 10 16 0.28 7.11
1:53 am 01:53 Clear 71 21.7 71 21.7 100 100 Calm 30.21 1023 10 16 0.09 2.29
2:53 am 02:53 Clear 71 21.7 70 21.1 96 96 Calm 30.17 1022 10 16 0.00 0.00
3:53 am 03:53 Clear 70 21.1 69 20.6 97 97 Calm 30.16 1022 10 16 0.00 0.00
4:53 am 04:53 Clear 70 21.1 69 20.6 97 97 Calm 30.18 1022 10 16 0.00 0.00
5:53 am 05:53 Clear 70 21.1 69 20.6 97 97 Calm 30.19 1022 10 16 0.00 0.00
6:53 am 06:53 Clear 70 21.1 69 20.6 97 97 Calm 30.21 1023 10 16 0.00 0.00
7:45 am 07:45 Mostly Sunny 71 21.7 70 21.1 96 96 Calm 30.22 1023 10 16 0.00 0.00
7:53 am 07:53 Sunny 71 21.7 70 21.1 96 96 Calm 30.23 1024 10 16 0.00 0.00
8:34 am 08:34 Mostly Sunny 73 22.8 71 21.7 94 94 NE 3 6 30.24 1024 10 16 0.00 0.00
8:53 am 08:53 Mostly Sunny 74 23.3 70 21.1 88 88 NNE 3 6 30.23 1024 10 16 0.00 0.00
9:53 am 09:53 Sunny 78 25.6 71 21.7 79 79 NNE 5 7 30.24 1024 10 16 0.00 0.00
10:53 am 10:53 Sunny 79 26.1 71 21.7 77 77 VRB 3 6 30.24 1024 10 16 0.00 0.00
11:53 am 11:53 Partly Cloudy 81 27.2 72 22.2 74 74 NW 5 7 30.24 1024 10 16 0.00 0.00
12:53 pm 12:53 Sunny 84 28.9 73 22.8 70 70 VRB 3 6 30.22 1023 10 16 0.00 0.00
1:53 pm 13:53 Mostly Sunny 85 29.4 71 21.7 63 63 Calm 30.19 1023 10 16 0.00 0.00
2:53 pm 14:53 Mostly Sunny 88 31.1 72 22.2 59 59 VRB 5 7 30.16 1021 10 16 0.00 0.00
3:53 pm 15:53 Mostly Sunny 89 31.7 71 21.7 55 55 VRB 3 6 30.12 1020 10 16 0.00 0.00
4:53 pm 16:53 Partly Cloudy 90 32.2 72 22.2 56 56 NNW 6 9 30.10 1019 10 16 0.00 0.00
5:53 pm 17:53 Sunny 88 31.1 72 22.2 59 59 NNW 6 9 30.10 1019 10 16 0.00 0.00
6:53 pm 18:53 Sunny 89 31.7 70 21.1 53 53 NW 3 6 30.10 1019 10 16 0.00 0.00
7:53 pm 19:53 Sunny 88 31.1 71 21.7 57 57 SW 5 7 30.11 1020 10 16 0.00 0.00
8:19 pm 20:19 Partly Cloudy with Thunderstorms 86 30 71 21.7 61 61 SSE 5 7 30.10 1019 10 16 0.00 0.00
8:40 pm 20:40 Windy with Storms Likely 76 24.4 69 20.6 79 79 S 22 35 30.12 1020 3 4 0.00 0.00
8:44 pm 20:44 Cloudy with Thunderstorms 77 25 68 20 74 74 SE 16 26 30.12 1020 4 6 0.00 0.00
8:53 pm 20:53 Mostly Cloudy with Thunderstorms 76 24.4 69 20.6 79 79 SE 10 17 30.13 1020 10 16 0.00 0.00
9:21 pm 21:21 Mostly Cloudy with Nearby Thunderstorms 76 24.4 70 21.1 82 82 SW 6 9 30.13 1020 10 16 0.00 0.00
9:53 pm 21:53 Partly Cloudy with Nearby Thunderstorms 77 25 70 21.1 79 79 SSW 5 7 30.15 1021 10 16 0.00 0.00
10:12 pm 22:12 Clear 76 24.4 71 21.7 85 85 SW 5 7 30.15 1021 10 16 0.00 0.00
10:53 pm 22:53 Mostly Clear 74 23.3 71 21.7 91 91 SW 5 7 30.18 1022 10 16 0.01 0.25
11:53 pm 23:53 Clear 72 22.2 69 20.6 91 91 SSW 5 7 30.16 1021 10 16 0.00 0.00

Powered by AerisWeather